SCP
0 0 0 0 0 0 0 0 0 0 0 -0 0 0 0 0 0 0 0 0 0 0 0 0 0 0 0 0 0 -0 -0 0 0 0 0 0 0 0 0 0 0 -0 0 0 0 0 0 0 0 0 0 0 0 0
0 0 0 0 0 0 0 0 0 0 0 -0 0 0 0 0 0 0 0 0 0 0 0 0 0 -0 -0 -0 0 0 -0 -0 0 0 0 0 0 0 0 0 0 0 0 0 0 0 0 0 0 0 0 0 0 0
0 0 0 0 0 0 0 0 0 0 -0 -0 0 0 0 0 0 0 0 0 0 0 0 0 0 0 0 0 0 0 0 -0 -0 0 0 0 0 0 0 0 0 0 0 0 0 0 0 0 0 0 0 0 0 0
0 0 0 0 0 0 0 0 0 -0 -0 -0 0 0 0 0 0 0 0 0 0 0 0 0 0 0 0 0 0 0 -0 -0 -0 -0 0 0 0 0 0 0 0 0 0 0 0 0 0 0 0 0 0 0 0 0
0 0 0 0 0 0 0 0 0 -0 -0 0 0 0 0 0 0 0 0 0 0 0 0 0 0 0 0 -0 0 0 0 0 0 0 -0 0 0 0 -0 -0 0 0 0 0 0 0 0 0 0 0 0 0 0 0
0 0 0 0 0 0 0 0 -0 -0 0 0 0 0 0 0 0 0 0 0 0 0 0 0 0 0 0 0 0 0 0 0 0 0 0 0 -0 0 -0 -0 -0 -0 0 0 0 0 0 0 0 0 0 0 0 0
0 0 0 0 0 0 0 -0 -0 0 0 0 0 0 0 0 0 0 0 0 0 0 0 0 0 0 0 0 0 0 0 0 0 0 0 0 0 0 0 -0 -0 0 0 0 0 0 0 0 0 0 0 0 0 0
0 0 0 0 0 0 -0 -0 -0 0 0 0 0 0 0 0 0 0 0 0 0 0 0 0 0 0 0 0 0 0 0 0 0 0 0 0 0 0 0 0 -0 -0 -0 0 -0 0 0 0 0 0 0 0 0 0
0 0 0 0 0 -0 -0 -0 0 0 0 0 0 0 0 0 0 0 0 0 0 0 0 0 0 0 0 0 0 0 0 0 0 0 0 0 0 0 0 -0 -0 -0 -0 -0 0 0 0 0 0 0 0 0 0 0
-0 0 -0 -0 -0 -0 -0 0 0 0 0 0 0 0 0 0 0 0 0 0 0 0 0 0 0 0 0 0 0 0 0 0 0 0 0 0 0 0 0 0 0 0 -0 -0 0 0 0 0 0 0 0 0 0 0
-0 -0 -0 -0 -0 -0 -0 0 0 0 0 0 0 0 0 -0 0 0 0 0 0 0 0 0 0 0 0 0 0 0 0 0 0 0 0 0 0 0 -0 0 0 0 0 0 -0 -0 -0 0 0 0 0 0 0 0
-0 -0 -0 -0 -0 -0 -0 0 -0 0 0 -0 0 0 0 0 0 0 0 0 0 0 0 0 0 0 0 0 0 0 0 0 0 0 0 0 0 0 -0 -0 -0 -0 -0 -0 -0 0 0 -0 0 0 0 0 0 0
-0 -0 -0 -0 0 0 0 0 0 0 0 0 0 0 -0 -0 0 0 0 0 0 0 0 0 0 0 0 0 0 0 0 0 0 0 0 0 0 0 0 0 0 0 -0 -0 -0 -0 -0 0 0 0 0 0 0 0
-0 -0 -0 -0 0 0 0 0 0 0 0 0 0 0 0 0 0 0 0 0 0 0 0 0 0 0 0 0 0 0 0 0 0 0 0 0 0 0 0 0 0 0 0 0 -0 -0 -0 -0 -0 0 0 0 0 0
-0 -0 -0 -0 -0 -0 0 0 0 0 0 0 0 -0 0 0 0 0 0 0 0 0 0 0 0 0 0 0 -0 -0 0 0 0 0 0 0 0 -0 -0 0 0 0 0 0 0 0 0 -0 0 0 0 0 0 0
-0 -0 0 0 -0 -0 0 0 0 0 0 0 -0 -0 -0 -0 -0 -0 -0 0 0 0 0 0 0 0 0 0 0 -0 -0 0 0 0 0 -0 -0 -0 -0 -0 -0 -0 -0 -0 0 0 -0 0 0 0 0 0 0 0
-0 0 -0 0 -0 -0 0 0 0 0 0 0 0 0 0 0 -0 -0 -0 -0 -0 0 -0 0 0 0 0 0 0 0 0 0 0 0 0 0 -0 0 -0 0 0 0 0 0 0 -0 0 0 0 -0 -0 0 0 0
0 -0 -0 -0 -0 0 0 0 0 0 0 0 0 0 0 0 0 0 0 0 0 0 0 0 0 0 0 0 0 0 0 0 0 0 0 0 0 0 0 0 -0 -0 -0 -0 -0 -0 -0 -0 -0 -0 -0 -0 -0 -0
-0 -0 -0 -0 0 0 0 0 0 0 0 0 0 0 0 0 0 0 0 0 0 0 0 0 0 0 0 0 0 0 0 0 0 0 0 0 0 0 0 0 0 0 0 -0 -0 -0 0 -0 -0 -0 -0 -0 -0 -0
-0 -0 -0 -0 0 0 0 0 0 0 0 0 0 0 0 0 0 0 0 0 0 0 0 0 0 0 0 0 0 0 0 0 0 0 0 0 0 0 0 0 0 0 0 0 0 0 0 0 0 0 0 0 0 0
-0 0 0 0 0 0 0 0 0 0 0 0 0 0 0 0 0 0 0 0 0 0 0 0 0 0 0 0 0 0 0 0 0 0 0 0 0 0 0 0 0 0 0 0 0 0 0 0 0 0 0 0 0 0
0 0 0 0 0 0 0 0 0 0 0 0 0 0 0 0 0 0 0 0 0 0 0 0 0 0 0 0 0 0 0 0 0 0 0 0 0 0 0 0 0 0 0 0 0 0 0 0 0 0 0 0 0 0
0 0 0 0 0 0 0 0 0 0 0 0 0 0 0 0 0 0 0 0 0 0 0 0 0 0 0 0 0 0 0 0 0 0 0 0 0 0 0 0 0 0 0 0 0 0 0 0 0 0 0 0 0 0
0 0 -0 0 0 0 0 0 0 0 0 0 0 0 0 0 0 0 0 0 0 0 0 0 0 0 0 0 0 0 0 0 0 0 0 0 0 0 0 0 0 0 0 0 0 0 0 0 0 0 0 0 0 0
0 0 0 0 0 0 0 0 0 0 0 0 0 0 0 0 0 0 0 0 0 0 0 0 0 0 0 0 0 0 0 0 0 0 0 0 0 0 0 0 0 0 0 0 0 0 0 0 0 0 0 0 0 0
0 0 0 0 0 0 0 0 0 0 0 0 0 0 0 0 0 0 0 0 0 0 0 0 0 0 0 0 0 0 0 0 0 0 0 0 0 0 0 0 0 0 0 0 0 0 0 0 0 0 0 0 0 0
0 0 0 0 0 0 0 0 0 0 0 0 0 0 0 0 0 0 0 0 0 0 0 0 0 0 0 0 0 0 0 0 0 0 0 0 0 0 0 0 0 0 0 0 0 0 0 0 0 0 0 0 0 0
0 0 0 0 0 0 0 0 0 0 0 0 0 0 0 0 0 0 0 0 0 0 0 0 0 0 0 0 0 0 0 0 0 0 0 0 0 0 0 0 0 0 0 0 0 0 0 0 0 0 0 0 0 0
0 0 0 0 0 0 0 0 0 0 0 0 0 0 0 0 0 0 0 0 0 0 0 0 0 0 0 0 0 0 0 0 0 0 0 0 0 0 0 0 0 0 0 0 0 0 0 0 0 0 0 0 0 0
0 0 0 0 0 0 0 0 0 -0 0 0 0 0 0 0 0 0 0 0 0 0 0 0 0 0 0 0 0 0 0 0 0 0 0 0 0 0 0 0 0 0 0 0 0 0 -0 0 0 0 0 0 0 0
0 0 0 0 0 0 0 0 0 0 0 0 0 0 0 0 0 0 0 0 0 0 0 0 0 0 0 0 0 0 0 0 0 0 0 0 0 0 0 0 0 0 0 0 0 0 0 0 0 0 0 0 0 0
0 0 0 0 0 0 0 0 0 0 0 0 0 0 0 0 0 0 0 0 0 0 0 0 0 0 0 0 0 0 0 0 0 0 0 0 0 0 0 0 0 0 0 0 0 0 0 0 0 0 0 0 0 0
0 0 0 0 0 0 0 0 0 0 0 0 0 0 0 0 0 0 0 0 0 0 0 0 0 0 0 0 0 0 0 0 0 0 0 0 0 0 0 0 0 0 0 0 0 0 0 0 0 0 0 0 0 0
Wind_Speed_500mb
49 53 57 60 60 62 63 64 60 59 61 59 58 58 52 48 36 35 43 35 37 25 54 59 50 44 33 28 17 23 22 9 13 7 9 7 14 5 18 25 15 24 30 27 29 32 33 9 14 9 16 22 33 26
50 55 58 61 61 62 62 63 61 61 61 57 55 55 51 43 39 32 40 33 35 42 31 39 49 59 55 41 33 18 26 32 10 7 7 9 18 7 18 19 18 18 19 20 27 29 7 23 28 10 8 17 17 24
52 55 58 61 65 66 66 65 62 59 55 54 54 52 48 50 35 28 35 32 33 35 44 46 16 17 23 31 33 22 19 25 31 29 15 9 11 20 12 22 24 25 32 23 28 34 28 36 27 24 27 31 28 32
50 55 60 64 66 66 65 61 56 53 52 52 51 53 57 40 29 21 27 25 25 8 8 16 14 16 12 18 28 36 39 22 18 15 17 10 9 22 20 22 28 27 26 30 39 39 46 51 45 40 48 40 44 39
51 57 62 65 66 65 60 53 48 46 48 53 59 54 31 16 11 2 14 16 15 18 8 23 37 13 6 15 33 30 35 36 30 9 9 13 19 21 27 27 32 39 36 28 27 34 33 45 53 54 52 46 43 42
54 59 63 65 64 57 50 43 43 49 55 59 53 21 8 13 9 2 2 7 9 4 8 6 17 9 13 4 5 16 29 37 36 12 14 19 38 16 10 20 40 48 52 59 48 64 64 52 44 41 56 39 44 50
55 60 63 63 55 47 42 42 49 54 55 53 21 9 16 12 10 4 7 10 16 9 5 9 11 8 14 15 13 15 22 14 11 6 8 8 7 10 7 27 68 70 77 72 54 36 54 56 38 47 41 40 48 58
56 59 61 53 43 40 43 50 51 52 52 27 11 13 16 14 13 12 11 11 1 0 5 5 7 12 15 10 1 8 4 9 7 8 7 7 7 13 11 38 75 89 81 80 70 63 61 51 49 48 49 49 45 45
55 57 50 38 37 43 48 50 51 51 29 16 13 12 7 11 6 8 8 13 8 5 2 2 5 6 16 7 5 5 4 3 6 4 5 6 3 7 31 79 102 106 93 79 62 50 39 48 52 62 60 60 52 52
53 48 33 34 41 46 46 48 49 36 22 19 14 2 5 11 16 5 7 5 9 5 3 4 5 5 6 4 6 2 8 2 4 4 3 3 5 38 79 86 55 41 18 43 41 28 29 36 48 53 55 54 46 46
48 33 27 37 43 42 41 51 45 21 22 15 8 11 5 16 9 4 4 11 9 5 3 8 9 7 6 4 4 2 1 1 5 8 11 9 19 57 101 98 92 49 22 14 24 29 31 42 41 46 40 36 33 21
38 22 28 37 40 38 44 49 41 16 7 11 8 2 2 10 9 9 11 13 9 10 22 22 21 5 7 6 8 11 4 6 12 8 12 14 26 89 91 94 105 101 85 69 21 13 28 54 47 51 47 64 59 57
29 18 26 34 32 34 43 52 42 18 3 18 10 9 11 12 15 11 10 7 11 22 25 47 16 7 3 7 11 7 13 9 7 9 7 13 57 78 84 81 90 90 87 96 91 86 90 79 79 85 72 86 84 72
25 16 23 29 32 38 39 41 35 31 20 9 9 12 10 11 9 7 11 18 28 25 38 36 31 1 8 5 9 11 10 10 14 12 11 22 59 63 68 72 76 79 92 86 81 83 91 90 86 76 76 89 94 88
26 16 19 20 27 40 31 27 32 29 13 10 12 7 9 12 11 22 28 33 40 36 25 19 15 23 12 8 10 11 10 10 12 12 13 42 48 52 59 65 67 70 69 68 69 75 78 79 78 75 75 75 75 69
26 15 22 22 24 37 38 13 19 13 11 10 12 17 22 29 30 34 35 40 43 46 12 16 11 10 12 9 11 13 5 3 5 14 28 36 44 49 51 54 58 55 59 58 59 59 57 60 61 62 66 66 65 63
23 15 26 24 22 19 31 16 11 13 10 8 16 22 26 29 31 37 37 41 34 38 15 10 10 8 6 8 7 4 4 4 10 9 16 27 37 45 47 46 49 49 50 47 46 47 45 43 46 51 53 52 53 54
19 18 24 32 23 10 17 19 11 8 7 10 15 20 27 30 32 35 36 36 35 25 26 13 18 19 9 7 8 12 17 8 4 7 7 17 29 34 38 41 43 42 41 41 37 35 37 36 36 36 35 33 36 38
21 17 16 25 24 11 9 10 9 6 10 7 9 16 21 26 29 30 33 34 25 24 21 15 11 8 9 9 15 22 26 30 25 7 11 10 17 26 32 36 35 38 37 36 35 31 29 32 31 29 28 27 31 30
21 17 14 16 14 5 4 6 4 3 10 10 5 13 16 17 22 24 28 31 29 30 23 12 14 18 21 19 21 25 24 27 28 27 21 25 29 27 29 33 34 32 31 29 24 28 24 23 25 26 27 26 25 27
17 13 8 8 5 5 5 7 3 8 8 7 11 9 6 9 13 19 18 21 21 21 18 18 20 17 11 13 17 20 22 25 23 22 23 29 26 25 25 27 28 27 27 28 26 24 24 23 22 21 20 22 21 24
10 6 3 5 2 2 2 6 9 7 7 7 7 9 9 12 14 16 12 11 11 15 17 18 21 18 15 12 18 17 20 23 18 20 18 25 23 21 23 23 25 25 23 22 20 19 19 17 17 18 18 20 19 20
3 2 2 2 4 3 3 4 6 7 7 12 8 6 7 8 8 9 2 8 6 8 10 16 17 10 9 10 14 9 17 23 25 23 21 25 23 15 17 19 19 19 20 19 17 17 17 16 20 19 19 18 17 17
2 2 4 3 4 4 3 5 3 6 5 6 4 7 7 12 8 5 4 5 5 6 8 13 14 17 11 9 16 15 15 23 25 24 20 23 23 20 17 14 14 15 15 15 15 15 16 18 18 18 18 19 18 17
4 0 4 6 5 6 5 6 4 5 6 6 5 6 4 2 6 4 6 2 1 3 5 9 15 15 13 15 21 17 12 22 24 24 21 21 20 18 16 13 11 8 14 16 16 14 14 16 17 20 19 20 18 15
1 4 4 2 1 6 7 7 5 8 9 7 4 5 7 9 6 7 3 6 4 7 8 8 11 16 17 15 18 20 20 19 19 19 18 17 16 16 16 16 14 12 16 15 15 14 14 13 15 17 16 14 20 19
4 5 5 4 8 9 13 9 5 10 6 5 10 4 5 7 6 8 5 6 6 8 9 13 11 16 17 17 18 14 14 15 14 16 12 11 12 13 13 14 16 15 10 13 12 13 14 16 16 14 12 13 14 15
8 4 12 6 9 17 9 16 8 5 4 5 13 5 6 2 6 10 11 3 7 14 17 12 21 8 10 10 16 15 16 16 10 17 12 3 9 13 18 14 13 16 3 6 8 13 13 14 12 12 13 14 14 12
13 11 7 17 19 14 10 10 6 8 9 17 12 11 13 12 11 8 4 6 9 13 5 9 3 6 9 14 9 12 16 16 15 12 11 11 12 15 16 16 16 13 9 3 8 9 12 5 11 8 10 11 10 9
11 4 12 22 15 14 6 16 21 31 22 17 16 14 15 11 5 4 1 6 3 8 6 6 7 8 13 17 19 19 16 8 11 11 13 12 12 13 15 15 15 13 11 8 7 7 15 14 12 10 10 10 11 10
6 12 15 20 22 21 13 23 23 14 11 13 13 11 14 7 7 9 1 5 7 8 6 7 10 10 14 21 21 19 16 5 4 4 8 6 10 12 15 14 14 13 12 10 9 10 11 9 8 8 8 10 13 16
14 18 18 17 23 17 17 14 19 21 13 9 13 4 7 4 6 4 5 8 10 7 7 11 13 14 11 14 13 13 13 6 7 3 1 7 11 15 16 15 14 12 11 10 8 8 9 10 10 10 11 12 13 16
9 13 11 14 19 11 14 17 17 11 17 5 8 10 11 15 12 6 8 9 8 13 11 9 7 8 10 11 13 13 12 6 12 17 18 20 20 18 13 13 13 14 11 10 10 11 11 11 12 13 13 13 14 15
Wind_Direction_500mb
318 321 321 320 320 320 319 321 324 317 314 316 319 315 317 315 310 297 287 275 241 244 266 271 277 272 282 272 271 297 312 277 273 274 282 306 273 360 296 272 187 208 202 218 227 232 237 26 133 197 49 15 360 11
320 320 321 321 322 322 321 322 322 318 320 322 316 315 316 315 315 298 283 275 273 228 249 276 281 270 261 256 261 266 271 316 304 338 338 320 301 241 281 280 224 241 259 229 220 223 261 297 318 358 358 318 326 333
320 322 323 323 323 323 323 322 322 321 322 320 318 314 317 317 307 286 278 279 240 241 273 276 282 291 252 237 237 231 258 269 272 296 300 290 283 304 288 275 281 283 290 271 266 264 273 281 293 293 291 284 302 296
322 324 325 325 325 326 327 325 324 324 323 320 318 319 320 314 299 272 260 274 254 229 264 287 301 279 230 276 238 234 242 262 292 286 284 263 267 280 294 289 289 287 301 257 260 261 273 270 274 274 271 284 286 289
324 326 327 326 326 328 327 328 330 330 326 324 324 329 324 319 307 234 260 278 273 237 288 300 312 14 239 290 223 225 228 237 236 268 252 259 278 288 276 277 269 269 268 259 248 255 251 254 254 251 261 272 284 290
328 329 328 327 330 330 332 337 336 330 326 328 338 348 39 12 57 130 296 314 220 302 302 302 355 348 346 23 230 240 236 235 235 222 248 262 254 268 262 259 257 260 258 257 261 264 268 269 264 252 246 246 267 279
331 330 329 331 333 333 340 340 335 329 330 336 357 80 48 46 63 321 12 306 312 254 301 302 324 346 322 276 238 238 240 239 229 254 243 254 266 308 275 268 276 283 286 279 263 272 264 256 250 258 259 266 261 265
332 332 334 335 336 342 344 340 337 332 335 345 38 127 44 59 62 46 354 345 45 75 10 327 293 316 352 318 309 184 207 204 233 242 257 248 236 219 255 262 276 276 265 265 255 255 256 259 257 261 266 273 259 265
334 338 337 343 347 348 347 345 343 340 356 25 89 98 32 29 13 355 2 52 74 16 54 318 306 321 330 308 302 175 166 224 247 251 239 301 268 250 285 292 286 277 254 233 236 242 253 247 251 250 255 251 259 260
339 341 345 354 352 352 352 353 351 357 19 67 40 272 122 347 349 13 12 34 21 5 338 247 250 287 302 293 283 258 175 275 286 263 239 242 263 307 333 343 3 16 117 184 209 220 243 242 243 238 240 241 241 258
342 345 357 358 356 358 4 3 360 10 33 30 3 43 7 357 345 341 358 19 6 304 224 273 239 284 273 280 313 258 356 0 340 29 353 342 348 347 355 13 32 49 75 177 222 239 250 247 243 233 238 233 236 266
346 354 2 1 358 8 10 9 2 31 52 88 58 16 66 359 2 357 19 350 350 344 345 317 352 260 278 255 258 204 276 178 37 44 7 8 344 350 5 21 33 35 38 54 87 177 88 96 99 76 90 104 107 97
351 358 1 360 358 4 3 9 10 33 160 42 39 42 19 20 32 37 341 308 312 321 310 312 339 351 240 244 272 309 37 21 45 39 20 356 353 358 3 14 22 31 43 47 52 54 74 82 87 83 71 83 92 88
351 356 360 2 11 2 357 4 27 32 41 37 28 28 28 10 5 251 271 295 307 291 305 309 306 115 63 11 16 2 37 49 17 10 15 354 357 8 11 17 21 25 30 36 53 60 68 76 79 77 75 79 79 80
351 346 355 355 14 10 4 11 29 35 36 45 47 44 21 315 330 345 348 343 346 325 305 316 339 25 43 52 28 358 32 45 18 357 343 353 3 15 19 21 21 25 29 32 39 46 51 61 71 74 82 89 85 78
359 359 352 341 336 348 353 26 18 38 44 57 43 23 6 5 5 4 2 359 352 344 336 8 30 7 36 56 23 21 31 49 316 324 350 357 5 6 12 17 21 26 30 33 36 43 48 48 54 55 57 59 67 80
1 359 356 346 346 1 21 30 25 48 50 23 46 25 17 12 3 4 1 1 353 9 4 56 40 25 12 44 42 53 334 230 330 334 345 358 360 360 2 11 19 21 25 30 34 36 42 49 49 52 56 56 62 63
339 335 356 6 3 19 12 32 53 55 83 26 28 16 22 19 9 8 7 6 7 6 25 47 44 32 40 44 21 12 18 44 338 344 352 354 359 2 3 2 5 11 15 19 24 31 38 43 47 49 52 55 57 58
333 324 331 351 5 40 6 24 17 73 46 39 17 14 22 19 16 12 15 17 17 26 37 52 64 42 50 16 354 358 7 353 342 318 321 329 2 1 3 358 358 1 4 11 12 18 29 37 42 45 52 54 55 52
321 322 324 341 10 18 10 37 352 8 27 13 313 3 348 22 15 17 25 27 36 46 53 55 52 38 23 23 4 356 4 345 339 341 352 345 352 348 360 354 355 353 359 2 10 16 20 31 37 43 49 53 51 46
319 326 332 9 1 4 354 322 63 1 334 329 8 320 331 320 29 14 22 23 34 28 39 22 14 33 347 347 350 346 356 349 341 341 347 337 335 343 348 354 357 1 5 4 8 22 26 28 28 28 30 33 32 31
298 327 56 344 358 307 303 2 339 358 290 335 330 330 349 349 359 19 329 12 42 23 18 5 356 338 343 6 339 338 345 342 326 330 337 330 331 343 346 356 358 2 10 12 14 24 26 20 21 20 14 15 22 21
340 47 353 321 256 298 279 331 299 353 318 358 291 315 352 338 37 305 283 2 35 9 356 5 348 311 321 321 321 311 343 338 335 340 339 335 326 330 339 342 352 0 360 14 14 20 26 18 9 8 10 11 12 15
344 20 292 308 278 281 273 272 309 304 288 288 326 311 338 353 315 257 317 347 8 322 4 358 349 354 327 278 324 334 330 334 333 336 339 339 332 329 325 331 341 350 350 355 6 10 12 15 14 17 16 13 14 18
295 86 262 249 239 273 284 311 310 288 306 319 284 276 12 313 289 318 300 39 334 12 359 353 359 353 340 340 342 350 358 338 335 331 342 341 333 329 327 333 342 2 359 348 353 357 358 359 5 1 3 7 5 14
3 168 223 333 244 287 347 317 315 320 344 317 272 352 295 295 260 262 4 18 347 349 323 346 2 350 354 349 336 339 338 337 339 339 346 346 349 346 343 336 337 17 353 345 337 339 344 347 350 352 0 10 9 7
260 176 195 251 299 293 275 264 307 318 312 274 312 335 239 267 336 24 50 292 332 339 44 325 324 330 342 351 346 335 332 338 343 345 345 359 4 3 355 344 339 329 334 344 347 353 346 345 346 351 357 2 6 6
266 285 271 215 251 273 285 310 285 288 281 26 302 351 271 230 284 352 4 200 211 216 317 257 264 298 322 346 347 347 343 340 339 349 335 334 13 3 359 357 332 352 358 349 337 342 344 358 5 7 5 358 3 18
251 231 268 275 274 276 256 284 295 297 320 318 298 345 0 4 358 333 259 225 206 282 262 317 214 261 314 307 315 350 346 346 348 350 351 356 4 2 3 4 7 3 357 319 328 2 6 357 8 356 1 355 355 357
306 317 293 288 288 303 279 271 338 335 333 321 323 302 269 148 93 20 193 192 307 334 276 320 332 320 317 336 334 331 316 330 349 357 1 5 5 357 358 358 358 353 354 345 356 350 10 358 345 359 14 12 7 357
302 285 279 289 292 300 355 334 317 310 313 322 316 304 326 52 95 58 116 254 304 327 316 318 318 309 340 343 344 342 350 352 8 353 358 12 356 353 347 344 342 343 349 342 335 336 348 351 356 3 1 355 352 352
252 266 287 293 310 335 331 311 328 319 329 320 312 10 280 9 2 79 27 15 350 327 324 321 343 357 348 352 354 351 354 336 322 309 321 353 343 332 330 330 331 330 332 341 337 341 347 346 340 340 340 343 343 346
303 285 302 297 291 308 5 347 325 323 325 341 3 336 330 16 45 58 23 22 7 355 348 347 358 357 20 20 17 8 14 335 312 278 291 320 323 334 353 334 333 337 324 316 319 325 327 325 328 335 332 331 332 336
Wind_Speed_850mb
49 53 57 60 60 62 63 64 60 59 61 59 58 58 52 48 36 35 43 35 37 25 54 59 50 44 33 28 17 23 22 9 13 7 9 7 14 5 18 25 15 24 30 27 29 32 33 9 14 9 16 22 33 26
50 55 58 61 61 62 62 63 61 61 61 57 55 55 51 43 39 32 40 33 35 42 31 39 49 59 55 41 33 18 26 32 10 7 7 9 18 7 18 19 18 18 19 20 27 29 7 23 28 10 8 17 17 24
52 55 58 61 65 66 66 65 62 59 55 54 54 52 48 50 35 28 35 32 33 35 44 46 16 17 23 31 33 22 19 25 31 29 15 9 11 20 12 22 24 25 32 23 28 34 28 36 27 24 27 31 28 32
50 55 60 64 66 66 65 61 56 53 52 52 51 53 57 40 29 21 27 25 25 8 8 16 14 16 12 18 28 36 39 22 18 15 17 10 9 22 20 22 28 27 26 30 39 39 46 51 45 40 48 40 44 39
51 57 62 65 66 65 60 53 48 46 48 53 59 54 31 16 11 2 14 16 15 18 8 23 37 13 6 15 33 30 35 36 30 9 9 13 19 21 27 27 32 39 36 28 27 34 33 45 53 54 52 46 43 42
54 59 63 65 64 57 50 43 43 49 55 59 53 21 8 13 9 2 2 7 9 4 8 6 17 9 13 4 5 16 29 37 36 12 14 19 38 16 10 20 40 48 52 59 48 64 64 52 44 41 56 39 44 50
55 60 63 63 55 47 42 42 49 54 55 53 21 9 16 12 10 4 7 10 16 9 5 9 11 8 14 15 13 15 22 14 11 6 8 8 7 10 7 27 68 70 77 72 54 36 54 56 38 47 41 40 48 58
56 59 61 53 43 40 43 50 51 52 52 27 11 13 16 14 13 12 11 11 1 0 5 5 7 12 15 10 1 8 4 9 7 8 7 7 7 13 11 38 75 89 81 80 70 63 61 51 49 48 49 49 45 45
55 57 50 38 37 43 48 50 51 51 29 16 13 12 7 11 6 8 8 13 8 5 2 2 5 6 16 7 5 5 4 3 6 4 5 6 3 7 31 79 102 106 93 79 62 50 39 48 52 62 60 60 52 52
53 48 33 34 41 46 46 48 49 36 22 19 14 2 5 11 16 5 7 5 9 5 3 4 5 5 6 4 6 2 8 2 4 4 3 3 5 38 79 86 55 41 18 43 41 28 29 36 48 53 55 54 46 46
48 33 27 37 43 42 41 51 45 21 22 15 8 11 5 16 9 4 4 11 9 5 3 8 9 7 6 4 4 2 1 1 5 8 11 9 19 57 101 98 92 49 22 14 24 29 31 42 41 46 40 36 33 21
38 22 28 37 40 38 44 49 41 16 7 11 8 2 2 10 9 9 11 13 9 10 22 22 21 5 7 6 8 11 4 6 12 8 12 14 26 89 91 94 105 101 85 69 21 13 28 54 47 51 47 64 59 57
29 18 26 34 32 34 43 52 42 18 3 18 10 9 11 12 15 11 10 7 11 22 25 47 16 7 3 7 11 7 13 9 7 9 7 13 57 78 84 81 90 90 87 96 91 86 90 79 79 85 72 86 84 72
25 16 23 29 32 38 39 41 35 31 20 9 9 12 10 11 9 7 11 18 28 25 38 36 31 1 8 5 9 11 10 10 14 12 11 22 59 63 68 72 76 79 92 86 81 83 91 90 86 76 76 89 94 88
26 16 19 20 27 40 31 27 32 29 13 10 12 7 9 12 11 22 28 33 40 36 25 19 15 23 12 8 10 11 10 10 12 12 13 42 48 52 59 65 67 70 69 68 69 75 78 79 78 75 75 75 75 69
26 15 22 22 24 37 38 13 19 13 11 10 12 17 22 29 30 34 35 40 43 46 12 16 11 10 12 9 11 13 5 3 5 14 28 36 44 49 51 54 58 55 59 58 59 59 57 60 61 62 66 66 65 63
23 15 26 24 22 19 31 16 11 13 10 8 16 22 26 29 31 37 37 41 34 38 15 10 10 8 6 8 7 4 4 4 10 9 16 27 37 45 47 46 49 49 50 47 46 47 45 43 46 51 53 52 53 54
19 18 24 32 23 10 17 19 11 8 7 10 15 20 27 30 32 35 36 36 35 25 26 13 18 19 9 7 8 12 17 8 4 7 7 17 29 34 38 41 43 42 41 41 37 35 37 36 36 36 35 33 36 38
21 17 16 25 24 11 9 10 9 6 10 7 9 16 21 26 29 30 33 34 25 24 21 15 11 8 9 9 15 22 26 30 25 7 11 10 17 26 32 36 35 38 37 36 35 31 29 32 31 29 28 27 31 30
21 17 14 16 14 5 4 6 4 3 10 10 5 13 16 17 22 24 28 31 29 30 23 12 14 18 21 19 21 25 24 27 28 27 21 25 29 27 29 33 34 32 31 29 24 28 24 23 25 26 27 26 25 27
17 13 8 8 5 5 5 7 3 8 8 7 11 9 6 9 13 19 18 21 21 21 18 18 20 17 11 13 17 20 22 25 23 22 23 29 26 25 25 27 28 27 27 28 26 24 24 23 22 21 20 22 21 24
10 6 3 5 2 2 2 6 9 7 7 7 7 9 9 12 14 16 12 11 11 15 17 18 21 18 15 12 18 17 20 23 18 20 18 25 23 21 23 23 25 25 23 22 20 19 19 17 17 18 18 20 19 20
3 2 2 2 4 3 3 4 6 7 7 12 8 6 7 8 8 9 2 8 6 8 10 16 17 10 9 10 14 9 17 23 25 23 21 25 23 15 17 19 19 19 20 19 17 17 17 16 20 19 19 18 17 17
2 2 4 3 4 4 3 5 3 6 5 6 4 7 7 12 8 5 4 5 5 6 8 13 14 17 11 9 16 15 15 23 25 24 20 23 23 20 17 14 14 15 15 15 15 15 16 18 18 18 18 19 18 17
4 0 4 6 5 6 5 6 4 5 6 6 5 6 4 2 6 4 6 2 1 3 5 9 15 15 13 15 21 17 12 22 24 24 21 21 20 18 16 13 11 8 14 16 16 14 14 16 17 20 19 20 18 15
1 4 4 2 1 6 7 7 5 8 9 7 4 5 7 9 6 7 3 6 4 7 8 8 11 16 17 15 18 20 20 19 19 19 18 17 16 16 16 16 14 12 16 15 15 14 14 13 15 17 16 14 20 19
4 5 5 4 8 9 13 9 5 10 6 5 10 4 5 7 6 8 5 6 6 8 9 13 11 16 17 17 18 14 14 15 14 16 12 11 12 13 13 14 16 15 10 13 12 13 14 16 16 14 12 13 14 15
8 4 12 6 9 17 9 16 8 5 4 5 13 5 6 2 6 10 11 3 7 14 17 12 21 8 10 10 16 15 16 16 10 17 12 3 9 13 18 14 13 16 3 6 8 13 13 14 12 12 13 14 14 12
13 11 7 17 19 14 10 10 6 8 9 17 12 11 13 12 11 8 4 6 9 13 5 9 3 6 9 14 9 12 16 16 15 12 11 11 12 15 16 16 16 13 9 3 8 9 12 5 11 8 10 11 10 9
11 4 12 22 15 14 6 16 21 31 22 17 16 14 15 11 5 4 1 6 3 8 6 6 7 8 13 17 19 19 16 8 11 11 13 12 12 13 15 15 15 13 11 8 7 7 15 14 12 10 10 10 11 10
6 12 15 20 22 21 13 23 23 14 11 13 13 11 14 7 7 9 1 5 7 8 6 7 10 10 14 21 21 19 16 5 4 4 8 6 10 12 15 14 14 13 12 10 9 10 11 9 8 8 8 10 13 16
14 18 18 17 23 17 17 14 19 21 13 9 13 4 7 4 6 4 5 8 10 7 7 11 13 14 11 14 13 13 13 6 7 3 1 7 11 15 16 15 14 12 11 10 8 8 9 10 10 10 11 12 13 16
9 13 11 14 19 11 14 17 17 11 17 5 8 10 11 15 12 6 8 9 8 13 11 9 7 8 10 11 13 13 12 6 12 17 18 20 20 18 13 13 13 14 11 10 10 11 11 11 12 13 13 13 14 15
Wind_Direction_850mb
318 321 321 320 320 320 319 321 324 317 314 316 319 315 317 315 310 297 287 275 241 244 266 271 277 272 282 272 271 297 312 277 273 274 282 306 273 360 296 272 187 208 202 218 227 232 237 26 133 197 49 15 360 11
320 320 321 321 322 322 321 322 322 318 320 322 316 315 316 315 315 298 283 275 273 228 249 276 281 270 261 256 261 266 271 316 304 338 338 320 301 241 281 280 224 241 259 229 220 223 261 297 318 358 358 318 326 333
320 322 323 323 323 323 323 322 322 321 322 320 318 314 317 317 307 286 278 279 240 241 273 276 282 291 252 237 237 231 258 269 272 296 300 290 283 304 288 275 281 283 290 271 266 264 273 281 293 293 291 284 302 296
322 324 325 325 325 326 327 325 324 324 323 320 318 319 320 314 299 272 260 274 254 229 264 287 301 279 230 276 238 234 242 262 292 286 284 263 267 280 294 289 289 287 301 257 260 261 273 270 274 274 271 284 286 289
324 326 327 326 326 328 327 328 330 330 326 324 324 329 324 319 307 234 260 278 273 237 288 300 312 14 239 290 223 225 228 237 236 268 252 259 278 288 276 277 269 269 268 259 248 255 251 254 254 251 261 272 284 290
328 329 328 327 330 330 332 337 336 330 326 328 338 348 39 12 57 130 296 314 220 302 302 302 355 348 346 23 230 240 236 235 235 222 248 262 254 268 262 259 257 260 258 257 261 264 268 269 264 252 246 246 267 279
331 330 329 331 333 333 340 340 335 329 330 336 357 80 48 46 63 321 12 306 312 254 301 302 324 346 322 276 238 238 240 239 229 254 243 254 266 308 275 268 276 283 286 279 263 272 264 256 250 258 259 266 261 265
332 332 334 335 336 342 344 340 337 332 335 345 38 127 44 59 62 46 354 345 45 75 10 327 293 316 352 318 309 184 207 204 233 242 257 248 236 219 255 262 276 276 265 265 255 255 256 259 257 261 266 273 259 265
334 338 337 343 347 348 347 345 343 340 356 25 89 98 32 29 13 355 2 52 74 16 54 318 306 321 330 308 302 175 166 224 247 251 239 301 268 250 285 292 286 277 254 233 236 242 253 247 251 250 255 251 259 260
339 341 345 354 352 352 352 353 351 357 19 67 40 272 122 347 349 13 12 34 21 5 338 247 250 287 302 293 283 258 175 275 286 263 239 242 263 307 333 343 3 16 117 184 209 220 243 242 243 238 240 241 241 258
342 345 357 358 356 358 4 3 360 10 33 30 3 43 7 357 345 341 358 19 6 304 224 273 239 284 273 280 313 258 356 0 340 29 353 342 348 347 355 13 32 49 75 177 222 239 250 247 243 233 238 233 236 266
346 354 2 1 358 8 10 9 2 31 52 88 58 16 66 359 2 357 19 350 350 344 345 317 352 260 278 255 258 204 276 178 37 44 7 8 344 350 5 21 33 35 38 54 87 177 88 96 99 76 90 104 107 97
351 358 1 360 358 4 3 9 10 33 160 42 39 42 19 20 32 37 341 308 312 321 310 312 339 351 240 244 272 309 37 21 45 39 20 356 353 358 3 14 22 31 43 47 52 54 74 82 87 83 71 83 92 88
351 356 360 2 11 2 357 4 27 32 41 37 28 28 28 10 5 251 271 295 307 291 305 309 306 115 63 11 16 2 37 49 17 10 15 354 357 8 11 17 21 25 30 36 53 60 68 76 79 77 75 79 79 80
351 346 355 355 14 10 4 11 29 35 36 45 47 44 21 315 330 345 348 343 346 325 305 316 339 25 43 52 28 358 32 45 18 357 343 353 3 15 19 21 21 25 29 32 39 46 51 61 71 74 82 89 85 78
359 359 352 341 336 348 353 26 18 38 44 57 43 23 6 5 5 4 2 359 352 344 336 8 30 7 36 56 23 21 31 49 316 324 350 357 5 6 12 17 21 26 30 33 36 43 48 48 54 55 57 59 67 80
1 359 356 346 346 1 21 30 25 48 50 23 46 25 17 12 3 4 1 1 353 9 4 56 40 25 12 44 42 53 334 230 330 334 345 358 360 360 2 11 19 21 25 30 34 36 42 49 49 52 56 56 62 63
339 335 356 6 3 19 12 32 53 55 83 26 28 16 22 19 9 8 7 6 7 6 25 47 44 32 40 44 21 12 18 44 338 344 352 354 359 2 3 2 5 11 15 19 24 31 38 43 47 49 52 55 57 58
333 324 331 351 5 40 6 24 17 73 46 39 17 14 22 19 16 12 15 17 17 26 37 52 64 42 50 16 354 358 7 353 342 318 321 329 2 1 3 358 358 1 4 11 12 18 29 37 42 45 52 54 55 52
321 322 324 341 10 18 10 37 352 8 27 13 313 3 348 22 15 17 25 27 36 46 53 55 52 38 23 23 4 356 4 345 339 341 352 345 352 348 360 354 355 353 359 2 10 16 20 31 37 43 49 53 51 46
319 326 332 9 1 4 354 322 63 1 334 329 8 320 331 320 29 14 22 23 34 28 39 22 14 33 347 347 350 346 356 349 341 341 347 337 335 343 348 354 357 1 5 4 8 22 26 28 28 28 30 33 32 31
298 327 56 344 358 307 303 2 339 358 290 335 330 330 349 349 359 19 329 12 42 23 18 5 356 338 343 6 339 338 345 342 326 330 337 330 331 343 346 356 358 2 10 12 14 24 26 20 21 20 14 15 22 21
340 47 353 321 256 298 279 331 299 353 318 358 291 315 352 338 37 305 283 2 35 9 356 5 348 311 321 321 321 311 343 338 335 340 339 335 326 330 339 342 352 0 360 14 14 20 26 18 9 8 10 11 12 15
344 20 292 308 278 281 273 272 309 304 288 288 326 311 338 353 315 257 317 347 8 322 4 358 349 354 327 278 324 334 330 334 333 336 339 339 332 329 325 331 341 350 350 355 6 10 12 15 14 17 16 13 14 18
295 86 262 249 239 273 284 311 310 288 306 319 284 276 12 313 289 318 300 39 334 12 359 353 359 353 340 340 342 350 358 338 335 331 342 341 333 329 327 333 342 2 359 348 353 357 358 359 5 1 3 7 5 14
3 168 223 333 244 287 347 317 315 320 344 317 272 352 295 295 260 262 4 18 347 349 323 346 2 350 354 349 336 339 338 337 339 339 346 346 349 346 343 336 337 17 353 345 337 339 344 347 350 352 0 10 9 7
260 176 195 251 299 293 275 264 307 318 312 274 312 335 239 267 336 24 50 292 332 339 44 325 324 330 342 351 346 335 332 338 343 345 345 359 4 3 355 344 339 329 334 344 347 353 346 345 346 351 357 2 6 6
266 285 271 215 251 273 285 310 285 288 281 26 302 351 271 230 284 352 4 200 211 216 317 257 264 298 322 346 347 347 343 340 339 349 335 334 13 3 359 357 332 352 358 349 337 342 344 358 5 7 5 358 3 18
251 231 268 275 274 276 256 284 295 297 320 318 298 345 0 4 358 333 259 225 206 282 262 317 214 261 314 307 315 350 346 346 348 350 351 356 4 2 3 4 7 3 357 319 328 2 6 357 8 356 1 355 355 357
306 317 293 288 288 303 279 271 338 335 333 321 323 302 269 148 93 20 193 192 307 334 276 320 332 320 317 336 334 331 316 330 349 357 1 5 5 357 358 358 358 353 354 345 356 350 10 358 345 359 14 12 7 357
302 285 279 289 292 300 355 334 317 310 313 322 316 304 326 52 95 58 116 254 304 327 316 318 318 309 340 343 344 342 350 352 8 353 358 12 356 353 347 344 342 343 349 342 335 336 348 351 356 3 1 355 352 352
252 266 287 293 310 335 331 311 328 319 329 320 312 10 280 9 2 79 27 15 350 327 324 321 343 357 348 352 354 351 354 336 322 309 321 353 343 332 330 330 331 330 332 341 337 341 347 346 340 340 340 343 343 346
303 285 302 297 291 308 5 347 325 323 325 341 3 336 330 16 45 58 23 22 7 355 348 347 358 357 20 20 17 8 14 335 312 278 291 320 323 334 353 334 333 337 324 316 319 325 327 325 328 335 332 331 332 336